レモン彗星

C/2014 L5 ( Lemmon )

English version
Home page
Updated on November 3, 2015

---------------------------------------------------------------------

・ プロフィール

発見日 2014年6月9日
発見光度 20.1等
発見者 R. A. Kowalski (Mt. Lemmon)

・ 写真集

・ 軌道要素

Epoch 2014 Dec. 9.0 TT = JDT 2457000.5
T 2014 Nov. 26.35313 TT                                 MPCW
q   6.2031701            (2000.0)            P               Q
z  -0.0004395      Peri.   45.61070     +0.79404000     -0.35931175
 +/-0.0000025      Node    35.68659     -0.15304678     -0.89878530
e   1.0027261      Incl.  122.80798     +0.58828323     +0.25115743
From 69 observations 2013 Oct. 12-2015 Sept. 14, mean residual 0".4.

・ 光度変化

        m1 = 7.5 + 5 logΔ + 10.0 log r

---------------------------------------------------------------------

軌道要素はM.P.E.C. 2015-S97に掲載されたものです。
光度グラフはComet for Windowsで作成したものです。

---------------------------------------------------------------------

Copyright(C) Seiichi Yoshida (comet@aerith.net). All rights reserved.